LTBJLTBQ

Guest
Details From LTBJ - ADNAN MENDERES
To LTBQ - TOPEL
Flight Number -
Tags decoded
Created
Modified
Stats Distance 271 nm / 502 km
Max Altitude 0 ft / 0 m
Waypoints 7
Social Downloads 0
Likes 0
Share VATSIM

Download

Looking for another format? Having issues loading an existing format? Contact us
Advertisement - Login to hide

Notes

Requested: LTBJ CIG EDR BIG YAA SBH LTBQ

Route

LTBJ CIG EDR BIG YAA SBH LTBQ

ID Type Via Altitude Latitude Longitude Leg Dist Tot Dist Heading (true) Name
O LTBJ APT - 0 ft / 0 m 38.29221˚ 27.15594˚ - 0 nm - ADNAN MENDERES
CIG NDB - 0 ft / 0 m 38.53083˚ 27.01722˚ 15 nm 15 nm 336° / 335° CIGLI NDB
EDR NDB - 0 ft / 0 m 39.55083˚ 27.00528˚ 61 nm 77 nm 359° / 359° EDREMIT NDB
BIG VOR - 0 ft / 0 m 40.28528˚ 27.36583˚ 47 nm 124 nm 21° / 21° BIGA VOR-DME
YAA VOR - 0 ft / 0 m 40.47500˚ 29.20750˚ 85 nm 209 nm 82° / 83° YALOVA VOR-DME
SBH VOR - 0 ft / 0 m 40.89966˚ 29.32038˚ 26 nm 235 nm 11° / 11° SABIHA GOKCEN VOR-DME
O LTBQ APT - 0 ft / 0 m 40.73503˚ 30.08326˚ 36 nm 271 nm 106° / 106° TOPEL

Altitude Profile

Advertisement - Login to hide

Weather


0- 5 10 15 20 25 30 35+ Temperature / ° C

Clouds and Precipitation
Forecast for 2017-12-17 06:00 UTC. Updated an hour ago

Ground ~20,000 ft ~40,000 ft Winds

LTBJ

Details ICAO LTBJ (ADB)
Name ADNAN MENDERES
Region Turkey
Timezone Europe/Istanbul (UTC+3.0)
Stats Elevation 412 ft / 126 m (AMSL)
Location 38.292210° 27.155939°
Runways 2
Magnetic Variation 4.896° E

METAR

LTBJ 170550Z 16015KT 9999 SCT030 BKN100 15/10 Q1012 NOSIG

Decode

TAF

Not found

Departure Runways

ID Width Length Bearing (true) Bearing (mag) Surface Threshold Offset Overrun Length
16L 147 ft / 45 m 10,635 ft / 3,242 m 166.78° 161.88° Asphalt 0 ft / 0 m 197 ft / 60 m
16R 147 ft / 45 m 10,651 ft / 3,246 m 166.71° 161.81° Concrete 0 ft / 0 m 197 ft / 60 m
34L 147 ft / 45 m 10,651 ft / 3,246 m 346.72° 341.82° Concrete 0 ft / 0 m 197 ft / 60 m
34R 147 ft / 45 m 10,635 ft / 3,242 m 346.79° 341.89° Asphalt 0 ft / 0 m 197 ft / 60 m

LTBQ

Details ICAO LTBQ
Name TOPEL
Region Turkey
Timezone Europe/Istanbul (UTC+3.0)
Stats Elevation 182 ft / 55 m (AMSL)
Location 40.735032° 30.083263°
Runways 1
Magnetic Variation 5.535° E

METAR

LTBQ 170550Z VRB06KT 9999 SCT035 BKN100 16/07 Q1011 NOSIG

Decode

TAF

Not found

Destination Runways

ID Width Length Bearing (true) Bearing (mag) Surface Threshold Offset Overrun Length
09 98 ft / 30 m 9,780 ft / 2,981 m 96.33° 90.80° Asphalt 0 ft / 0 m 0 ft / 0 m
27 98 ft / 30 m 9,780 ft / 2,981 m 276.35° 270.82° Asphalt 0 ft / 0 m 0 ft / 0 m

Popular Alternatives